When you browse on this site, cookies collect data to enhance your experience and personalize the content and advertising you see.
Visit our Privacy Policy to learn more. By continuing to use the site, you agree to this use of cookies and data.
  • In Romania
  • List of Countries
  • For 7 days
  • Water Temperature
  • Weather Map
  • Weather Widgets
  • user-avatar
    Login

    Hourly Weather Świebodzin

    Today, 6 December, Friday

    Time Temperature Precipitation Wind Pressure Humidity
    00:00 -2°C° 0 mm 5 mps 755 mmHg 63%
    01:00 -2°C° 0 mm 5 mps 755 mmHg 62%
    02:00 -2°C° 0 mm 5 mps 754 mmHg 60%
    03:00 -2°C° 0 mm 5 mps 754 mmHg 59%
    04:00 -2°C° 0 mm 5 mps 753 mmHg 57%
    05:00 -2°C° 0 mm 5 mps 753 mmHg 56%
    06:00 -2°C° 0 mm 6 mps 753 mmHg 54%
    07:00 -2°C° 0 mm 6 mps 753 mmHg 53%
    08:00 -2°C° 0 mm 6 mps 752 mmHg 50%
    09:00 -1°C° 0 mm 6 mps 752 mmHg 47%
    10:00 +1°C° 0 mm 6 mps 752 mmHg 44%
    11:00 +2°C° 0 mm 6 mps 752 mmHg 44%
    12:00 +2°C° 0 mm 6 mps 751 mmHg 44%
    13:00 +3°C° 0 mm 6 mps 751 mmHg 44%
    14:00 +3°C° 0 mm 6 mps 751 mmHg 45%
    15:00 +2°C° 0 mm 5 mps 750 mmHg 47%
    16:00 +2°C° 0 mm 5 mps 750 mmHg 48%
    17:00 +2°C° 0 mm 5 mps 749 mmHg 48%
    18:00 +3°C° 0 mm 5 mps 749 mmHg 48%
    19:00 +3°C° 0 mm 6 mps 749 mmHg 48%
    20:00 +3°C° 0 mm 6 mps 749 mmHg 50%
    21:00 +3°C° 0 mm 6 mps 748 mmHg 52%
    22:00 +3°C° 0 mm 6 mps 748 mmHg 53%
    23:00 +3°C° 0.1 mm 6 mps 747 mmHg 58%

    Tomorrow, 7 December, Saturday

    Time Temperature Precipitation Wind Pressure Humidity
    00:00 +3°C° 0.1 mm 6 mps 747 mmHg 63%
    01:00 +3°C° 0.1 mm 6 mps 747 mmHg 68%
    02:00 +3°C° 0.3 mm 7 mps 746 mmHg 73%
    03:00 +3°C° 0.3 mm 7 mps 745 mmHg 78%
    04:00 +4°C° 0.3 mm 7 mps 745 mmHg 83%
    05:00 +4°C° 0.4 mm 7 mps 745 mmHg 82%
    06:00 +5°C° 0.4 mm 6 mps 745 mmHg 81%
    07:00 +5°C° 0.4 mm 6 mps 745 mmHg 81%
    08:00 +5°C° 0.1 mm 6 mps 745 mmHg 82%
    09:00 +5°C° 0.1 mm 6 mps 745 mmHg 83%
    10:00 +5°C° 0.1 mm 6 mps 745 mmHg 84%
    11:00 +6°C° 0.7 mm 7 mps 745 mmHg 84%
    12:00 +6°C° 0.7 mm 7 mps 745 mmHg 83%
    13:00 +6°C° 0.7 mm 7 mps 746 mmHg 83%
    14:00 +6°C° 0 mm 7 mps 746 mmHg 82%
    15:00 +6°C° 0 mm 7 mps 746 mmHg 80%
    16:00 +7°C° 0 mm 6 mps 746 mmHg 79%
    17:00 +7°C° 0.1 mm 6 mps 747 mmHg 80%
    18:00 +6°C° 0.1 mm 7 mps 747 mmHg 81%
    19:00 +6°C° 0.1 mm 7 mps 748 mmHg 82%
    20:00 +7°C° 0.4 mm 6 mps 748 mmHg 82%
    21:00 +6°C° 0.4 mm 5 mps 748 mmHg 83%
    22:00 +6°C° 0.4 mm 4 mps 749 mmHg 84%
    23:00 +6°C° 0.3 mm 5 mps 749 mmHg 84%

    Day after tomorrow, 8 December, Sunday

    Time Temperature Precipitation Wind Pressure Humidity
    00:00 +6°C° 0.3 mm 5 mps 749 mmHg 84%
    01:00 +5°C° 0.3 mm 6 mps 749 mmHg 85%
    02:00 +5°C° 0.1 mm 6 mps 749 mmHg 84%
    03:00 +5°C° 0.1 mm 6 mps 749 mmHg 83%
    04:00 +5°C° 0.1 mm 6 mps 748 mmHg 83%
    05:00 +5°C° 0 mm 6 mps 748 mmHg 82%
    06:00 +6°C° 0 mm 5 mps 748 mmHg 82%
    07:00 +6°C° 0 mm 5 mps 748 mmHg 82%
    08:00 +5°C° 0 mm 6 mps 747 mmHg 80%
    09:00 +5°C° 0 mm 6 mps 747 mmHg 79%
    10:00 +5°C° 0 mm 6 mps 747 mmHg 78%
    11:00 +5°C° 0 mm 6 mps 746 mmHg 75%
    12:00 +5°C° 0 mm 7 mps 745 mmHg 73%
    13:00 +6°C° 0 mm 7 mps 744 mmHg 70%
    14:00 +6°C° 0.3 mm 7 mps 744 mmHg 75%
    15:00 +6°C° 0.3 mm 7 mps 743 mmHg 80%
    16:00 +6°C° 0.3 mm 7 mps 742 mmHg 85%
    17:00 +6°C° 0.1 mm 7 mps 742 mmHg 83%
    18:00 +8°C° 0.1 mm 7 mps 742 mmHg 82%
    19:00 +8°C° 0.1 mm 6 mps 742 mmHg 80%
    20:00 +8°C° 0 mm 6 mps 742 mmHg 80%
    21:00 +8°C° 0 mm 6 mps 741 mmHg 80%
    22:00 +8°C° 0 mm 6 mps 741 mmHg 81%
    23:00 +7°C° 0 mm 5 mps 741 mmHg 79%

    9 December, Monday

    Time Temperature Precipitation Wind Pressure Humidity
    00:00 +7°C° 0 mm 4 mps 741 mmHg 78%
    01:00 +6°C° 0 mm 4 mps 740 mmHg 77%
    02:00 +6°C° 0 mm 4 mps 740 mmHg 76%
    03:00 +6°C° 0 mm 5 mps 740 mmHg 74%
    04:00 +5°C° 0 mm 6 mps 740 mmHg 73%
    05:00 +5°C° 0.1 mm 6 mps 740 mmHg 76%
    06:00 +4°C° 0.1 mm 6 mps 740 mmHg 79%
    07:00 +5°C° 0.1 mm 5 mps 739 mmHg 81%
    08:00 +5°C° 0 mm 5 mps 739 mmHg 80%
    09:00 +5°C° 0 mm 5 mps 739 mmHg 79%
    10:00 +5°C° 0 mm 5 mps 739 mmHg 77%
    11:00 +6°C° 0 mm 5 mps 739 mmHg 74%
    12:00 +6°C° 0 mm 5 mps 738 mmHg 70%
    13:00 +7°C° 0 mm 5 mps 738 mmHg 67%
    14:00 +6°C° 0.1 mm 5 mps 738 mmHg 70%
    15:00 +6°C° 0.1 mm 5 mps 737 mmHg 74%
    16:00 +5°C° 0.1 mm 4 mps 737 mmHg 77%
    17:00 +5°C° 0.1 mm 5 mps 737 mmHg 78%
    18:00 +5°C° 0.1 mm 5 mps 737 mmHg 79%
    19:00 +5°C° 0.1 mm 5 mps 737 mmHg 80%
    20:00 +5°C° 0.4 mm 5 mps 737 mmHg 82%
    21:00 +4°C° 0.4 mm 6 mps 737 mmHg 84%
    22:00 +3°C° 0.4 mm 6 mps 737 mmHg 86%
    23:00 +3°C° 0.4 mm 6 mps 738 mmHg 86%

    10 December, Tuesday

    Time Temperature Precipitation Wind Pressure Humidity
    00:00 +3°C° 0.4 mm 6 mps 738 mmHg 85%
    01:00 +3°C° 0.4 mm 6 mps 739 mmHg 84%
    02:00 +3°C° 0.4 mm 6 mps 739 mmHg 84%
    03:00 +3°C° 0.4 mm 6 mps 740 mmHg 84%
    04:00 +3°C° 0.4 mm 5 mps 741 mmHg 84%
    05:00 +3°C° 0 mm 6 mps 741 mmHg 84%
    06:00 +3°C° 0 mm 6 mps 742 mmHg 83%
    07:00 +3°C° 0 mm 6 mps 743 mmHg 83%
    08:00 +3°C° 0.1 mm 6 mps 744 mmHg 82%
    09:00 +3°C° 0.1 mm 6 mps 746 mmHg 80%
    10:00 +3°C° 0.1 mm 6 mps 747 mmHg 78%
    11:00 +2°C° 0.6 mm 7 mps 748 mmHg 80%
    12:00 0°C° 0.6 mm 7 mps 750 mmHg 81%
    13:00 -1°C° 0.6 mm 7 mps 751 mmHg 83%
    14:00 -1°C° 0 mm 6 mps 752 mmHg 75%
    15:00 0°C° 0 mm 5 mps 753 mmHg 68%
    16:00 -1°C° 0 mm 4 mps 754 mmHg 60%
    17:00 -1°C° 0 mm 4 mps 755 mmHg 63%
    18:00 -1°C° 0 mm 3 mps 756 mmHg 66%
    19:00 -1°C° 0 mm 3 mps 756 mmHg 69%
    20:00 -1°C° 0 mm 3 mps 756 mmHg 70%
    21:00 -2°C° 0 mm 2 mps 757 mmHg 71%
    22:00 -2°C° 0 mm 2 mps 757 mmHg 72%
    23:00 -2°C° 0 mm 2 mps 756 mmHg 73%

    11 December, Wednesday

    Time Temperature Precipitation Wind Pressure Humidity
    00:00 -2°C° 0 mm 2 mps 756 mmHg 74%
    01:00 -2°C° 0 mm 3 mps 755 mmHg 74%
    02:00 -1°C° 0 mm 3 mps 755 mmHg 72%
    03:00 -2°C° 0 mm 4 mps 754 mmHg 69%
    04:00 -2°C° 0 mm 5 mps 753 mmHg 66%
    05:00 -2°C° 0 mm 5 mps 752 mmHg 64%
    06:00 -1°C° 0 mm 5 mps 751 mmHg 63%
    07:00 -1°C° 0 mm 5 mps 750 mmHg 61%
    08:00 -2°C° 0.5 mm 6 mps 750 mmHg 72%
    09:00 -2°C° 0.5 mm 6 mps 749 mmHg 84%
    10:00 -2°C° 0.5 mm 6 mps 749 mmHg 95%
    11:00 -2°C° 0.6 mm 6 mps 748 mmHg 95%
    12:00 -1°C° 0.6 mm 6 mps 748 mmHg 96%
    13:00 0°C° 0.6 mm 5 mps 747 mmHg 96%
    14:00 0°C° 0.4 mm 5 mps 747 mmHg 96%
    15:00 +1°C° 0.4 mm 5 mps 747 mmHg 96%
    16:00 +1°C° 0.4 mm 5 mps 747 mmHg 96%
    17:00 +1°C° 0.1 mm 5 mps 747 mmHg 95%
    18:00 +1°C° 0.1 mm 4 mps 747 mmHg 94%
    19:00 +1°C° 0.1 mm 4 mps 747 mmHg 93%
    20:00 +1°C° 0 mm 4 mps 747 mmHg 90%
    21:00 +1°C° 0 mm 4 mps 747 mmHg 88%
    22:00 0°C° 0 mm 5 mps 747 mmHg 85%
    23:00 0°C° 0 mm 5 mps 747 mmHg 83%
    Show more